[TLELIST] Archives

 

Current TLEs

September 26th 2006 PDT

HST 1 20580U 90037B 06268.89266759 .00000417 00000-0 19599-4 0 7052 2 20580 028.4672 113.3841 0003914 172.7790 187.2856 15.00098526700232 ISS (ZARYA) 1 25544U 98067A 06269.31288222 .00021099 00000-0 13505-3 0 7447 2 25544 051.6364 026.5262 0012351 029.4714 050.3990 15.76180174449114 CXO 1 25867U 99040B 06268.20833333 +.00000402 +00000-0 +00000-0 0 09814 2 25867 060.2852 094.8224 5897464 288.9534 355.2941 00.37805466001250 ____________________________________________________________________ These 2-Line ...Continue Reading

Current TLEs

September 25th 2006 PDT

HST 1 20580U 90037B 06266.96325591 +.00000434 +00000-0 +20970-4 0 07276 2 20580 028.4672 125.9623 0003902 152.6617 207.4177 15.00097714699945 ISS (ZARYA) 1 25544U 98067A 06268.48219916 .00018093 00000-0 11671-3 0 7383 2 25544 051.6351 030.8063 0012129 024.0789 019.1283 15.76132271448980 CXO 1 25867U 99040B 06268.20833333 +.00000402 +00000-0 +00000-0 0 09814 2 25867 060.2852 094.8224 5897464 288.9534 355.2941 00.37805466001250 ____________________________________________________________________ These 2-Line ...Continue Reading

Current TLEs

September 24th 2006 PDT

HST 1 20580U 90037B 06267.02978737 .00000430 00000-0 20659-4 0 7045 2 20580 028.4672 125.5287 0003899 153.5196 206.5591 15.00097717699958 ISS (ZARYA) 1 25544U 98067A 06267.48021767 .00014751 00000-0 96175-4 0 7310 2 25544 051.6355 035.9687 0012136 021.7901 092.2791 15.76079899448825 CXO 1 25867U 99040B 06265.58333333 +.00000349 +00000-0 +00000-0 0 09806 2 25867 060.2701 094.8641 5895555 289.0209 357.8651 00.37805549001243 ____________________________________________________________________ These 2-Line ...Continue Reading

Current TLEs

September 23rd 2006 PDT

HST 1 20580U 90037B 06265.89875194 .00000473 00000-0 24023-4 0 7036 2 20580 028.4671 132.9025 0003903 142.7011 217.3851 15.00097367699782 ISS (ZARYA) 1 25544U 98067A 06266.51663859 .00016725 00000-0 10855-3 0 7253 2 25544 051.6357 040.9317 0012345 018.6328 024.5663 15.76057523448672 CXO 1 25867U 99040B 06262.91666667 +.00000000 +00000-0 +00000-0 0 09779 2 25867 060.1469 095.0161 5921760 288.9407 354.7078 00.37800346001237 ____________________________________________________________________ These 2-Line ...Continue Reading

Current TLEs

September 22nd 2006 PDT

HST 1 20580U 90037B 06264.76771594 .00000466 00000-0 23464-4 0 7029 2 20580 028.4673 140.2757 0003849 132.2722 227.8193 15.00096675699618 ISS (ZARYA) 1 25544U 98067A 06265.50238751 .00016984 00000-0 11033-3 0 7188 2 25544 051.6354 046.1584 0012058 014.4087 030.3185 15.76025805448515 CXO 1 25867U 99040B 06262.91666667 +.00000000 +00000-0 +00000-0 0 09779 2 25867 060.1469 095.0161 5921760 288.9407 354.7078 00.37800346001237 ____________________________________________________________________ These 2-Line ...Continue Reading

Current TLEs

September 21st 2006 PDT

HST 1 20580U 90037B 06261.97338905 +.00000426 +00000-0 +20338-4 0 07050 2 20580 028.4676 158.4916 0003729 105.1339 254.9662 15.00094865699193 ISS (ZARYA) 1 25544U 98067A 06264.49206380 .00019035 00000-0 12329-3 0 7121 2 25544 051.6358 051.3623 0012063 010.9640 057.6921 15.75994759448357 CXO 1 25867U 99040B 06262.91666667 +.00000000 +00000-0 +00000-0 0 09779 2 25867 060.1469 095.0161 5921760 288.9407 354.7078 00.37800346001237 ____________________________________________________________________ These 2-Line ...Continue Reading

Current TLEs

September 20th 2006 PDT

HST 1 20580U 90037B 06263.10442683 .00000447 00000-0 21996-4 0 7016 2 20580 028.4674 151.1187 0003789 116.0324 244.0656 15.00095593699363 ISS (ZARYA) 1 25544U 98067A 06263.53668367 .00268250 00000-0 16368-2 0 7033 2 25544 051.6338 056.2816 0011661 007.0775 037.5526 15.75977410448209 CXO 1 25867U 99040B 06260.29166667 +.00000000 +00000-0 +00000-0 0 09762 2 25867 060.1526 095.0753 5913797 288.9926 357.3351 00.37791668001234 ____________________________________________________________________ These 2-Line ...Continue Reading

Current TLEs

September 19th 2006 PDT

HST 1 20580U 90037B 06261.90685744 .00000428 00000-0 20528-4 0 7007 2 20580 028.4676 158.9257 0003733 104.4247 255.6756 15.00094857699183 ISS (ZARYA) 1 25544U 98067A 06262.45957253 .00016595 00000-0 10859-3 0 6951 2 25544 051.6352 061.8317 0011303 001.4136 048.2097 15.75891624448030 CXO 1 25867U 99040B 06260.29166667 +.00000000 +00000-0 +00000-0 0 09762 2 25867 060.1526 095.0753 5913797 288.9926 357.3351 00.37791668001234 ____________________________________________________________________ These 2-Line ...Continue Reading

Current TLEs

September 18th 2006 PDT

HST 1 20580U 90037B 06259.97743825 +.00000480 +00000-0 +24603-4 0 07204 2 20580 028.4677 171.5028 0003708 083.3279 276.7730 15.00094075698898 ISS (ZARYA) 1 25544U 98067A 06261.32207801 .00005709 00000-0 40249-4 0 6854 2 25544 051.6341 067.6907 0011290 355.6429 076.4483 15.75843464447851 CXO 1 25867U 99040B 06260.29166667 +.00000000 +00000-0 +00000-0 0 09762 2 25867 060.1526 095.0753 5913797 288.9926 357.3351 00.37791668001234 ____________________________________________________________________ These 2-Line ...Continue Reading

Current TLEs

September 17th 2006 PDT

HST 1 20580U 90037B 06260.17703337 .00000488 00000-0 25227-4 0 6998 2 20580 028.4677 170.2011 0003739 085.6611 274.4408 15.00094273698926 ISS (ZARYA) 1 25544U 98067A 06260.30555731 .00014722 00000-0 97158-4 0 6798 2 25544 051.6348 072.9255 0011231 352.2176 069.2652 15.75814755447691 CXO 1 25867U 99040B 06260.29166667 +.00000000 +00000-0 +00000-0 0 09762 2 25867 060.1526 095.0753 5913797 288.9926 357.3351 00.37791668001234 ____________________________________________________________________ These 2-Line ...Continue Reading
  • This mailing list is a public mailing list - anyone may join or leave, at any time.
  • This mailing list is announce-only.

International Space Station (ISS) / Hubble Space Telescope (HST) / Chandra X-Ray Observatory Orbital Data via EMAIL

Privacy Policy:

Private list